DW7253 Weather Reports


time (UTC)temp
C
wind
direction
speed
KPH
gust
KPH
rain 1hr
cm
rain 24hr
cm
rain mn
cm
humidity
%
barometer
mb
20260504204538 24 320 19.3 38.6 0.00 0.00 0.00 45 997.9
20260504203029 24 359 24.1 43.5 0.00 0.00 0.00 44 997.7
20260504201528 24 359 20.9 43.5 0.00 0.00 0.00 44 997.8
20260504200026 25 359 17.7 38.6 0.00 0.00 0.00 43 998.0
20260504194524 25 359 19.3 54.7 0.00 0.00 0.00 45 998.1
20260504193024 25 264 17.7 48.3 0.00 0.00 0.00 44 998.1
20260504191522 24 359 12.9 41.8 0.00 0.00 0.00 45 998.4
20260504190017 23 359 12.9 27.4 0.00 0.00 0.00 48 998.5
20260504184514 23 359 9.7 29.0 0.00 0.00 0.00 49 998.8
20260504183012 23 261 17.7 29.0 0.00 0.00 0.00 50 999.0
20260504181511 22 359 12.9 30.6 0.00 0.00 0.00 53 999.2
20260504180005 22 359 9.7 30.6 0.00 0.00 0.00 55 999.5
20260504174503 22 180 9.7 20.9 0.00 0.00 0.00 55 999.8
20260504173059 21 189 11.3 29.0 0.00 0.00 0.00 56 1000.0
20260504171556 21 229 14.5 27.4 0.00 0.00 0.00 57 1000.3
20260504081600 10 359 4.8 19.3 0.00 0.00 0.00 76 1003.5
20260504044533 11 359 4.8 17.7 0.00 0.00 0.00 74 1005.6
20260504043032 11 209 4.8 14.5 0.00 0.00 0.00 73 1005.7
20260504041621 11 194 4.8 14.5 0.00 0.00 0.00 73 1005.8
20260504040021 11 242 8.0 14.5 0.00 0.00 0.00 71 1005.8
20260504034517 11 359 6.4 17.7 0.00 0.00 0.00 71 1006.0
20260504033016 11 197 4.8 12.9 0.00 0.00 0.00 71 1006.1
20260504031518 11 184 6.4 12.9 0.00 0.00 0.00 71 1006.1
20260504030015 11 223 6.4 12.9 0.00 0.00 0.00 71 1006.1
20260504024515 11 249 4.8 14.5 0.00 0.00 0.00 71 1006.2
20260504023014 11 190 4.8 14.5 0.00 0.00 0.00 71 1006.1
20260504021515 11 182 6.4 11.3 0.00 0.00 0.00 71 1006.1
20260504020013 12 168 4.8 11.3 0.00 0.00 0.00 69 1006.1
20260504014513 12 171 4.8 16.1 0.00 0.00 0.00 66 1006.0
20260504013017 12 359 8.0 17.7 0.00 0.00 0.00 66 1006.1
20260504011511 13 359 8.0 20.9 0.00 0.00 0.00 66 1006.2
20260504010010 13 203 6.4 19.3 0.00 0.00 0.00 67 1006.2
20260504004516 12 214 3.2 12.9 0.00 0.00 0.00 70 1006.2
20260504003009 12 167 1.6 9.7 0.00 0.00 0.00 75 1006.1
20260504001508 12 182 4.8 11.3 0.00 0.00 0.00 76 1006.2
20260504000006 12 167 6.4 11.3 0.00 0.00 0.00 75 1006.4
20260503234504 12 168 8.0 17.7 0.00 0.00 0.00 75 1006.6
20260503233001 12 180 4.8 14.5 0.00 0.00 0.00 76 1006.9
20260503231602 12 359 8.0 24.1 0.00 0.00 0.00 76 1007.0
20260503230113 12 175 6.4 19.3 0.00 0.00 0.00 76 1007.1
20260503224559 12 156 8.0 17.7 0.00 0.00 0.00 75 1007.5
20260503223052 11 176 8.0 16.1 0.00 0.00 0.00 77 1007.7
20260503221550 11 359 3.2 16.1 0.00 0.00 0.00 78 1007.9
20260503220049 10 195 8.0 19.3 0.00 0.00 0.00 78 1007.9
20260503214549 11 164 9.7 20.9 0.00 0.00 0.00 78 1008.2
20260503213046 10 163 11.3 25.7 0.00 0.00 0.00 81 1008.2
20260503211603 9 156 6.4 20.9 0.00 0.00 0.00 85 1008.3
20260503210043 8 155 6.4 17.7 0.00 0.00 0.00 86 1008.5